Flag for Switzerland Weather past 2 weeks in Grenchen, Solothurn, Switzerland

Now
44 °F

Quite cool.


Feels Like: 38 °F
Forecast: 29 / 39 °F
Wind: 12 mph from West

Location: Grenchen

Current Time: Dec 25, 2014 at 12:33:23 PM

Latest Report: Dec 25, 2014 at 12:00 PM


Visibility: N/A

Pressure: 30.37 "Hg

Humidity: 70%

Dew point: 35 °F

Location of GrenchenLocation

Historic Weather in Grenchen — Graph

°F

Grenchen temperature yesterday

Maximum temperature yesterday: 44 °F (at 3:00 PM)
Minimum temperature yesterday: 24 °F (at 8:00 AM)
Average temperature yesterday: 33 °F

Past Weeks' High & Low Weather Summary

 TemperatureHumidityPressure
High53 °F (Dec 19, 1:00 PM)100% (Dec 13, 9:00 AM)30.64 "Hg (Dec 13, 9:00 AM)
Low24 °F (Dec 23, 6:00 AM)58% (Dec 20, 8:00 PM)29.91 "Hg (Dec 12, 4:00 PM)
Average40 °F91%30.24 "Hg
* Reported Dec 10 11:00 AM — Dec 25 11:00 AM, Grenchen, Weather by CustomWeather, © 2014

Note: Actual official high and low records may vary slightly from our data, if they occured in-between our weather recording intervals... More about our weather records

Advertising

Grenchen weather history for previous 24 hours

 ConditionsComfort  
Time TempWeatherWind HumidityBarometerVisibility
11:00 AM
Dec 25
45 °FQuite cool.8 mph81%30.37 "HgN/A
10:00 AM43 °FQuite cool.8 mph87%30.36 "HgN/A
9:00 AM42 °FQuite cool.8 mph90%30.36 "HgN/A
8:00 AM42 °FQuite cool.6 mph92%30.35 "HgN/A
7:00 AM41 °FQuite cool.6 mph92%30.35 "HgN/A
6:00 AM42 °FQuite cool.9 mph89%30.34 "HgN/A
5:00 AM42 °FQuite cool.7 mph87%30.34 "HgN/A
4:00 AM42 °FQuite cool.7 mph88%30.34 "HgN/A
3:00 AM41 °FQuite cool.7 mph92%30.36 "HgN/A
2:00 AM42 °FQuite cool.7 mph88%30.35 "HgN/A
1:00 AM41 °FQuite cool.3 mph92%30.36 "HgN/A
12:00 AM40 °FQuite cool.2 mph89%30.37 "HgN/A
11:00 PM
Dec 24
37 °FChilly.5 mph93%30.39 "HgN/A
10:00 PM39 °FChilly.3 mph89%30.40 "HgN/A
9:00 PM40 °FQuite cool.8 mph85%30.39 "HgN/A
8:00 PM38 °FChilly.3 mph91%30.38 "HgN/A
7:00 PM36 °FChilly.6 mph95%30.38 "HgN/A
6:00 PM41 °FQuite cool.7 mph86%30.35 "HgN/A
5:00 PM40 °FChilly.5 mph89%30.34 "HgN/A
4:00 PM43 °FQuite cool.1 mph86%30.32 "HgN/A
3:00 PM44 °FQuite cool.No wind85%30.32 "HgN/A
2:00 PM42 °FQuite cool.No wind92%30.34 "HgN/A
1:00 PM38 °FChilly.1 mph100%30.38 "HgN/A
12:00 PM32 °FChilly.2 mph99%30.42 "HgN/A
Weather by CustomWeather, © 2014

See weather overviewHow to use our weather pages